パンスターズ彗星

C/2019 B3 ( PanSTARRS )

English version
Home page
Updated on September 2, 2023

---------------------------------------------------------------------

・ プロフィール

発見日 2019年1月24日
発見光度 19.6等
発見者 Pan-STARRS 1 telescope (Haleakala)

・ 写真集

・ 軌道要素

Epoch 2023 Sept. 13.0 TT = JDT 2460200.5
T 2021 Jan. 20.22075 TT                                 Rudenko
q   6.8261617            (2000.0)            P               Q
z  +0.0000843      Peri.  263.97128     -0.11583465     +0.99295040
 +/-0.0000009      Node   358.42984     +0.00246129     -0.02501982
e   0.9994247      Incl.   66.54253     -0.99326546     -0.11585991
>From 286 observations 2019 Jan. 24-2023 Aug. 20, mean residual 0".5.

・ 光度変化

        m1 = 5.0 + 5 logΔ + 10.0 log r(t - 300)

---------------------------------------------------------------------

軌道要素はM.P.E.C. 2023-Q150に掲載されたものです。
光度グラフはComet for Windowsで作成したものです。

---------------------------------------------------------------------

Copyright(C) Seiichi Yoshida (comet@aerith.net). All rights reserved.